Temperature
20 19 17 17 17 16 16 16 15 16 16 16 16 15 15 15 15 15 15 15 15 14 14 14 14 14 14 14 14 14 14 14 14 15 15 15 15 15 15 15 14 13 13
22 19 18 18 17 17 16 16 15 15 15 15 15 15 15 15 15 15 15 15 14 14 14 14 14 14 13 13 14 14 14 14 14 14 14 15 15 15 15 15 14 13 13
21 20 19 18 17 17 17 17 16 15 15 15 15 15 14 14 14 15 15 14 13 13 13 13 13 13 13 13 14 14 14 14 14 14 14 14 15 15 15 14 14 14 13
21 20 20 19 18 18 18 17 17 16 15 14 14 14 14 14 15 15 15 14 13 13 13 13 13 13 13 14 14 14 14 14 14 14 14 14 14 14 14 14 14 14 13
20 20 20 20 19 18 18 18 18 16 15 14 14 14 14 14 15 15 15 15 15 14 14 14 14 14 14 14 14 14 14 14 13 13 13 13 13 13 13 13 13 13 13
20 20 20 20 20 19 19 19 18 17 16 14 14 14 14 15 15 15 15 15 15 15 14 14 14 14 14 14 14 14 14 13 13 13 13 13 13 13 13 13 13 13 13
19 19 19 19 19 19 19 19 18 17 16 15 15 14 14 15 15 15 15 15 15 15 14 14 14 14 14 14 13 13 13 13 13 13 13 13 13 12 12 12 12 12 12
19 19 19 19 19 19 19 19 19 18 17 16 16 15 15 15 15 15 15 15 15 15 14 14 14 14 14 14 13 13 13 13 13 13 13 13 12 12 12 13 13 12 12
18 18 19 19 19 19 19 19 19 18 17 17 16 16 15 15 15 15 15 15 15 15 14 14 14 14 14 14 14 13 13 13 13 13 13 12 12 12 12 12 12 12 12
18 18 18 19 19 19 19 19 18 18 17 17 16 16 15 15 15 15 15 15 15 14 14 14 13 14 14 14 13 13 13 13 13 13 12 12 12 12 12 11 11 11 11
17 18 18 18 18 19 19 19 18 18 17 17 16 16 15 15 15 14 14 14 14 14 13 13 13 14 14 13 13 13 13 13 13 13 12 12 11 11 11 11 11 10 10
18 18 18 18 18 18 18 18 18 18 17 17 16 15 15 15 14 14 14 14 14 13 13 13 13 13 13 13 13 13 13 13 13 12 12 11 11 11 10 10 10 10 10
19 18 18 17 17 17 17 18 18 18 18 17 16 16 15 14 14 14 13 13 13 13 13 13 13 13 13 13 13 13 13 13 12 12 11 10 10 10 10 10 10 9 9
19 19 18 17 17 17 17 17 17 17 18 18 17 16 15 15 14 14 13 13 13 13 13 13 13 13 13 13 13 13 13 13 12 11 10 10 10 9 9 9 9 9 9
18 18 18 18 17 17 17 16 16 17 17 18 18 17 16 15 14 14 13 13 13 13 13 13 12 12 12 12 13 13 13 12 12 11 10 10 9 9 9 9 8 8 8
18 18 18 18 17 17 17 17 17 17 17 17 17 17 16 16 15 14 13 13 13 13 13 12 12 12 12 12 12 12 12 12 11 10 10 9 9 9 9 9 8 8 8
17 18 18 18 17 17 17 17 17 17 16 16 16 16 16 16 15 14 13 13 13 13 12 12 12 12 12 12 12 12 12 11 11 10 9 9 9 9 8 8 8 8 8
18 18 18 18 18 17 17 17 17 17 17 16 16 16 16 15 15 14 14 13 12 12 12 12 11 11 11 12 12 12 12 11 10 10 9 8 8 8 8 8 8 8 8
18 18 18 18 18 18 18 18 17 17 17 16 16 15 15 15 15 14 14 13 12 12 12 11 11 11 11 11 12 12 11 11 10 9 9 8 8 8 8 8 8 8 8
17 17 18 18 18 18 18 18 17 17 17 16 16 16 15 15 15 14 13 13 12 12 11 11 11 11 11 11 11 11 11 11 10 9 9 8 7 7 7 7 7 7 7
17 17 17 17 17 17 17 17 17 17 17 17 16 16 15 15 15 14 13 13 12 12 12 11 11 11 11 11 11 11 11 10 9 9 9 8 8 7 7 7 7 7 7
17 17 17 17 17 17 17 17 17 17 17 17 17 17 16 15 15 14 14 13 13 12 11 11 11 11 11 11 11 11 10 10 10 9 9 8 8 7 7 6 6 6 6
16 16 16 17 17 17 17 17 16 16 16 16 16 16 16 16 15 15 14 14 13 12 12 12 11 11 11 11 11 11 11 11 10 9 9 9 8 7 7 6 6 6 6
16 16 16 16 16 16 16 16 16 16 15 16 16 16 16 16 16 15 15 14 14 13 12 12 11 11 11 11 11 11 11 11 10 10 9 9 8 8 7 6 6 5 5
15 15 15 16 16 16 16 16 16 16 16 16 16 16 16 16 16 15 15 15 14 14 13 12 12 11 11 11 11 11 10 10 10 10 9 9 8 7 6 6 5 5 5
14 14 14 15 15 15 16 16 16 16 16 15 15 15 15 15 15 15 15 15 14 14 13 12 12 11 11 11 11 11 10 10 10 9 9 9 8 7 6 5 5 5 4
Wind_Speed
6 10 17 16 16 15 15 15 16 17 18 18 18 18 16 14 13 11 10 9 8 8 9 11 12 13 14 13 12 12 12 12 12 12 12 12 10 10 10 9 8 6 6
9 14 18 17 16 15 15 15 15 16 17 18 17 17 15 13 11 10 9 8 8 9 11 12 12 13 12 12 12 12 11 11 10 9 9 9 9 9 8 8 6 5 6
11 14 18 17 16 15 15 14 14 15 17 17 17 16 15 13 11 10 10 9 9 10 11 12 12 12 11 11 11 11 10 9 7 6 6 6 6 7 7 6 5 5 5
13 14 16 18 17 15 14 14 13 14 16 17 17 16 15 13 12 11 11 10 10 10 11 11 11 10 10 10 10 9 9 8 6 5 4 3 4 5 5 4 3 3 3
11 14 17 19 17 15 14 14 13 13 15 16 17 16 15 13 12 12 11 11 11 10 10 9 9 9 9 9 8 8 8 8 6 5 4 2 3 4 5 4 2 1 1
8 13 17 19 17 16 15 14 14 14 16 16 17 16 15 14 13 12 11 11 10 9 9 8 8 8 8 8 8 8 8 8 8 7 5 2 4 4 5 5 5 4 2
9 12 16 19 17 16 15 15 14 15 16 16 16 16 14 13 12 12 11 10 9 9 8 8 8 7 7 8 8 7 7 7 9 8 6 3 4 4 6 7 7 8 8
11 11 16 18 17 16 15 15 14 15 15 16 16 15 14 13 12 12 11 10 8 8 8 8 7 7 8 8 8 7 7 8 9 8 5 3 5 4 6 7 9 11 13
10 9 11 15 17 16 16 15 15 15 15 15 15 15 14 13 12 12 11 9 8 7 7 7 7 7 8 9 9 10 10 10 10 7 5 4 5 5 7 9 13 16 19
9 8 8 12 14 15 15 15 15 14 14 14 14 13 12 12 12 12 11 9 7 6 6 6 7 8 9 10 10 11 11 10 9 6 4 3 4 7 11 14 17 18 18
11 8 7 8 11 13 14 15 15 15 14 13 12 11 10 9 10 11 11 9 7 5 5 6 7 9 10 11 10 10 10 9 8 6 4 5 8 13 16 16 17 17 16
15 13 9 8 9 11 12 13 13 13 14 12 10 10 8 7 9 11 11 9 7 6 5 6 8 9 9 10 10 10 10 9 9 8 8 12 14 16 16 15 15 14 14
13 14 12 11 10 10 8 10 10 11 12 12 12 11 9 7 8 9 9 8 6 6 6 7 9 8 8 8 8 9 9 10 10 9 10 13 14 14 14 13 13 12 11
11 13 12 12 10 10 9 8 9 9 10 10 13 14 11 7 6 7 8 8 7 7 7 7 7 8 8 8 8 8 8 8 9 11 12 14 13 12 12 11 11 10 10
12 13 13 13 13 11 9 7 9 9 10 13 14 15 14 9 6 7 7 8 8 8 8 7 8 8 7 7 7 7 7 8 9 11 12 14 13 12 10 10 9 9 9
13 14 13 14 14 12 12 10 8 11 12 13 14 15 16 13 10 8 7 7 8 9 9 9 8 7 5 6 5 6 7 7 9 10 11 12 12 11 10 9 9 9 9
11 12 14 15 15 16 15 13 10 12 13 12 13 16 17 16 14 11 7 6 9 11 12 10 9 7 5 5 4 4 5 6 7 8 9 10 10 10 9 9 9 9 9
9 10 14 14 16 18 16 14 10 12 13 12 14 16 18 18 17 13 8 7 12 13 11 7 5 5 4 4 3 3 3 5 5 6 7 7 8 8 8 8 8 8 8
10 11 11 13 15 18 18 14 11 10 11 12 14 14 17 19 19 15 9 10 14 11 7 6 4 4 4 4 4 3 2 2 3 4 4 4 5 5 6 7 7 7 7
9 10 11 11 14 15 14 12 11 10 10 10 11 14 17 19 20 16 10 12 14 8 7 6 5 3 4 5 5 4 3 2 2 2 3 3 3 3 4 5 5 5 6
8 10 11 11 12 11 10 13 13 15 13 12 12 15 18 18 19 16 9 10 11 11 11 10 6 5 3 3 4 3 3 3 2 1 2 3 3 3 4 4 4 4 5
9 9 10 11 11 12 12 13 10 11 10 13 11 11 17 18 19 17 13 13 12 10 11 9 7 5 3 4 4 4 2 1 1 1 1 3 3 4 5 4 4 4 4
8 9 9 11 11 12 12 8 5 5 4 6 9 12 13 17 19 17 15 14 14 13 13 12 10 9 6 3 3 4 5 5 3 0 1 1 3 2 3 4 4 4 4
8 7 8 9 10 10 10 10 12 12 13 13 13 13 13 16 18 19 17 15 16 13 14 13 11 7 8 5 3 1 2 4 5 3 1 1 1 3 2 2 2 4 6
7 6 5 6 8 9 9 12 13 15 14 10 9 11 13 13 15 16 16 15 16 14 14 14 11 9 6 7 6 4 3 3 2 4 3 3 2 2 2 2 4 5 6
8 7 6 5 7 8 9 11 13 16 15 11 12 13 12 9 11 14 14 15 15 13 14 14 13 13 8 8 6 5 5 4 4 4 4 3 3 2 2 2 4 6 5
Wind_Direction
173 163 159 159 156 153 149 146 143 140 137 134 130 127 124 120 115 110 107 106 107 108 120 126 120 109 100 93 90 91 89 85 83 78 70 67 74 84 86 82 79 70 72
151 157 158 159 156 153 151 148 145 143 140 137 133 129 125 119 113 109 109 111 114 105 102 112 109 100 93 90 92 93 92 89 85 78 69 61 63 83 86 79 79 75 70
143 154 157 158 155 153 151 149 149 149 147 143 138 133 127 122 117 114 113 114 112 103 91 89 94 92 90 91 94 93 88 82 80 83 80 63 54 77 84 79 72 71 66
146 151 154 156 154 153 152 152 152 154 153 148 143 137 132 128 124 120 117 115 111 102 92 87 89 92 92 94 94 87 77 67 69 93 100 68 30 59 79 78 68 55 50
142 149 156 155 154 154 154 155 157 159 156 152 146 142 138 134 130 125 121 117 112 108 103 100 100 98 96 95 90 80 70 66 77 100 106 77 9 10 63 64 57 36 347
136 147 158 155 155 155 156 158 162 164 161 155 150 147 145 140 134 128 123 120 118 117 117 114 110 103 95 90 82 71 65 74 91 106 107 71 351 356 55 55 47 46 38
141 148 159 157 157 157 158 159 162 164 162 159 157 155 153 147 140 135 133 132 129 125 121 118 111 100 86 77 70 66 72 88 103 107 100 54 340 6 52 49 45 48 50
149 151 163 163 161 161 161 162 164 167 166 166 165 164 162 157 150 146 144 143 138 132 128 121 111 96 79 68 63 65 85 99 100 96 83 32 353 39 57 56 56 61 63
151 154 165 165 164 164 166 167 169 170 171 171 172 172 171 165 161 158 155 154 149 143 138 127 112 93 78 72 70 75 88 94 91 82 62 22 9 49 68 74 75 74 68
157 163 168 166 165 166 170 173 175 175 177 178 178 177 175 172 170 168 165 165 162 157 145 132 117 97 81 80 85 87 90 90 82 71 46 19 28 77 85 82 79 72 66
177 180 174 168 169 170 172 178 180 180 182 183 182 178 175 177 179 176 173 174 171 162 144 131 117 100 86 83 89 93 92 85 77 62 53 69 87 89 84 80 75 69 64
191 192 189 181 175 173 179 180 180 181 184 183 180 178 176 180 181 176 175 175 170 158 135 123 109 97 94 89 88 95 92 85 75 63 79 92 92 88 81 76 72 69 64
195 198 199 195 186 182 181 177 180 182 182 183 182 180 175 169 165 161 160 162 152 130 106 103 94 96 98 96 97 99 97 88 78 71 84 94 93 88 83 78 73 70 66
204 205 203 202 198 194 189 185 185 185 186 185 187 183 172 161 156 154 155 152 141 133 122 114 108 106 100 99 106 108 103 94 86 81 85 93 94 93 89 83 77 72 67
216 214 208 204 205 201 196 195 195 196 197 195 191 187 180 172 168 166 163 156 150 146 141 131 124 114 104 98 105 116 112 105 98 91 90 94 95 95 92 86 78 71 64
216 218 213 210 209 205 205 204 203 202 202 199 198 192 187 182 177 174 171 165 161 159 153 144 135 124 111 108 100 115 123 117 111 104 99 98 99 99 97 90 80 70 61
215 214 212 213 210 210 210 208 207 205 203 205 204 196 192 187 183 181 179 175 168 159 147 134 123 115 109 104 94 111 128 128 122 115 109 104 100 99 101 96 85 72 59
224 217 215 213 210 212 213 210 209 206 205 208 204 199 196 192 188 183 182 180 168 157 149 139 131 112 110 115 110 97 122 136 133 127 118 112 106 102 102 100 86 70 56
228 226 220 214 210 211 213 211 209 205 206 207 203 202 199 195 190 186 184 176 165 158 154 149 132 131 135 133 122 95 97 133 149 142 133 124 114 110 100 96 82 65 48
233 231 231 222 217 211 209 210 210 209 209 205 205 206 198 196 191 185 180 171 165 160 159 152 136 115 125 135 111 84 63 92 131 149 160 148 135 124 112 95 76 49 30
237 228 228 226 222 210 203 207 211 215 214 211 210 205 199 195 189 184 177 170 171 174 173 157 134 128 128 144 115 88 47 51 98 113 159 159 151 142 126 103 72 41 15
237 228 226 225 223 212 209 208 209 211 215 213 208 202 198 193 188 187 179 179 179 173 166 165 149 137 136 167 144 131 134 341 317 49 119 161 152 141 131 113 79 46 19
259 242 234 227 225 218 211 205 198 194 195 198 205 207 199 192 189 189 184 179 181 178 180 179 167 153 151 174 187 152 156 200 205 304 30 124 150 140 133 122 85 64 52
281 268 248 239 233 227 213 204 202 209 215 213 211 210 200 193 191 191 186 183 183 184 184 183 176 163 146 154 157 114 123 143 151 177 261 247 185 172 164 140 118 100 84
313 304 282 262 248 238 222 212 211 218 221 214 206 203 200 196 194 191 186 186 187 187 184 180 176 170 159 156 156 149 127 80 106 147 187 221 247 220 210 191 172 141 107
340 333 323 301 276 258 238 224 218 220 219 208 203 204 201 195 194 193 189 190 190 187 184 182 180 177 169 156 154 152 153 155 172 159 163 181 214 256 255 219 183 166 140
Height
1513 1515 1517 1520 1523 1525 1528 1531 1533 1535 1536 1537 1538 1539 1540 1541 1542 1542 1542 1542 1542 1542 1543 1544 1544 1545 1546 1546 1546 1547 1547 1548 1549 1549 1550 1550 1550 1551 1551 1551 1552 1552 1552
1513 1515 1517 1520 1523 1526 1528 1531 1533 1535 1536 1537 1538 1540 1541 1541 1542 1541 1541 1541 1542 1543 1544 1545 1546 1546 1547 1547 1547 1547 1547 1548 1549 1549 1550 1550 1551 1551 1551 1552 1552 1552 1552
1513 1515 1518 1520 1523 1526 1529 1531 1533 1535 1536 1537 1538 1539 1540 1541 1541 1541 1540 1541 1542 1544 1545 1546 1547 1547 1548 1548 1548 1548 1549 1549 1550 1551 1551 1551 1551 1552 1552 1552 1552 1552 1553
1514 1516 1518 1521 1523 1526 1528 1531 1533 1535 1536 1537 1538 1539 1540 1541 1541 1541 1541 1541 1543 1544 1545 1546 1548 1549 1549 1549 1550 1550 1551 1551 1552 1552 1552 1553 1553 1553 1553 1553 1553 1553 1554
1515 1517 1519 1522 1524 1526 1528 1531 1533 1534 1536 1538 1539 1539 1540 1541 1541 1542 1542 1543 1544 1545 1547 1548 1549 1550 1550 1551 1551 1552 1552 1553 1553 1554 1554 1554 1554 1554 1554 1554 1555 1555 1555
1515 1517 1520 1522 1525 1527 1529 1531 1532 1534 1536 1537 1539 1540 1541 1542 1542 1543 1544 1544 1545 1546 1548 1549 1550 1551 1552 1552 1552 1553 1554 1554 1554 1555 1555 1555 1554 1554 1555 1555 1555 1555 1555
1515 1517 1520 1523 1525 1528 1529 1531 1532 1534 1535 1537 1539 1540 1541 1542 1543 1544 1545 1546 1547 1548 1549 1550 1551 1552 1552 1553 1553 1554 1555 1555 1555 1555 1555 1555 1555 1555 1555 1555 1555 1556 1556
1515 1517 1520 1523 1526 1528 1530 1531 1533 1534 1535 1537 1539 1540 1542 1543 1544 1545 1546 1547 1548 1549 1550 1551 1552 1553 1553 1554 1554 1555 1555 1556 1556 1556 1556 1556 1556 1556 1556 1556 1555 1555 1555
1516 1518 1520 1523 1526 1528 1530 1531 1533 1534 1535 1537 1539 1540 1542 1543 1545 1546 1547 1548 1549 1550 1551 1552 1553 1553 1554 1554 1555 1555 1555 1556 1556 1556 1556 1556 1556 1556 1556 1556 1555 1555 1555
1516 1518 1520 1523 1525 1527 1529 1531 1533 1534 1535 1537 1539 1540 1542 1544 1545 1546 1548 1549 1550 1551 1552 1553 1553 1554 1554 1555 1555 1555 1555 1556 1556 1556 1556 1556 1556 1555 1555 1555 1555 1555 1554
1515 1517 1519 1522 1524 1527 1529 1530 1532 1534 1535 1537 1538 1540 1542 1543 1545 1546 1548 1549 1550 1551 1552 1553 1553 1554 1555 1555 1555 1555 1555 1555 1555 1555 1555 1555 1555 1555 1555 1555 1555 1554 1554
1513 1516 1518 1521 1523 1525 1527 1529 1531 1533 1534 1536 1537 1539 1541 1543 1544 1546 1548 1549 1550 1551 1552 1553 1553 1554 1554 1555 1555 1555 1554 1554 1554 1554 1554 1554 1554 1554 1554 1554 1554 1554 1553
1513 1515 1517 1519 1522 1523 1525 1527 1529 1531 1533 1534 1536 1538 1539 1541 1543 1545 1546 1548 1549 1550 1551 1552 1553 1553 1554 1554 1554 1554 1554 1553 1553 1553 1553 1553 1553 1553 1553 1553 1553 1553 1552
1512 1514 1516 1518 1520 1521 1523 1525 1527 1529 1530 1532 1534 1536 1537 1539 1541 1543 1545 1547 1548 1549 1550 1551 1552 1553 1553 1553 1553 1553 1552 1552 1551 1551 1552 1552 1552 1552 1552 1552 1552 1552 1551
1510 1512 1514 1516 1518 1519 1521 1522 1524 1525 1528 1530 1532 1533 1534 1536 1539 1541 1543 1545 1546 1547 1549 1550 1551 1552 1552 1552 1552 1551 1551 1550 1550 1551 1551 1551 1551 1551 1551 1551 1551 1550 1550
1508 1510 1512 1513 1515 1517 1518 1519 1521 1523 1525 1527 1528 1530 1531 1533 1536 1538 1540 1542 1544 1545 1547 1548 1549 1550 1550 1550 1550 1550 1549 1549 1549 1549 1550 1550 1550 1550 1550 1549 1549 1549 1549
1506 1507 1508 1510 1511 1513 1514 1516 1518 1520 1521 1523 1524 1526 1528 1530 1532 1535 1537 1539 1541 1542 1544 1545 1547 1547 1548 1548 1548 1548 1548 1548 1548 1548 1548 1548 1548 1548 1548 1548 1548 1548 1547
1501 1503 1504 1505 1507 1508 1510 1512 1514 1516 1518 1519 1521 1522 1524 1526 1528 1530 1533 1535 1537 1539 1541 1542 1544 1545 1545 1546 1546 1546 1546 1546 1546 1547 1547 1547 1547 1547 1547 1547 1546 1546 1546
1495 1497 1499 1500 1501 1503 1504 1506 1509 1511 1513 1515 1517 1518 1519 1521 1523 1525 1528 1531 1533 1535 1537 1539 1540 1542 1542 1543 1543 1543 1544 1544 1544 1544 1545 1545 1545 1545 1545 1545 1544 1544 1543
1489 1490 1492 1494 1495 1497 1498 1500 1502 1504 1507 1509 1511 1513 1515 1516 1518 1521 1523 1526 1528 1530 1533 1535 1537 1538 1539 1540 1540 1541 1541 1541 1542 1542 1543 1543 1543 1543 1543 1543 1542 1542 1541
1482 1483 1484 1486 1488 1490 1491 1492 1494 1496 1499 1501 1504 1507 1509 1511 1513 1516 1518 1521 1523 1525 1528 1530 1532 1534 1535 1536 1537 1538 1538 1539 1539 1539 1540 1540 1541 1541 1540 1540 1539 1538 1538
1475 1476 1477 1479 1481 1482 1484 1485 1487 1489 1491 1494 1497 1500 1503 1505 1507 1510 1512 1515 1517 1520 1523 1525 1527 1529 1530 1532 1533 1534 1535 1537 1535 1536 1537 1537 1537 1537 1537 1536 1536 1535 1534
1467 1468 1470 1472 1474 1475 1477 1479 1480 1482 1483 1486 1489 1492 1495 1498 1501 1504 1506 1509 1511 1514 1516 1519 1522 1524 1526 1527 1529 1531 1531 1530 1532 1533 1533 1533 1534 1533 1533 1532 1532 1531 1530
1461 1462 1463 1465 1467 1469 1470 1471 1472 1473 1474 1476 1481 1484 1487 1490 1493 1497 1499 1502 1505 1508 1510 1513 1516 1518 1520 1522 1524 1525 1527 1527 1528 1528 1529 1529 1529 1529 1529 1528 1527 1526 1525
1458 1458 1458 1459 1460 1462 1464 1465 1465 1466 1467 1470 1473 1476 1479 1481 1485 1489 1492 1495 1498 1501 1504 1507 1509 1512 1514 1516 1518 1520 1521 1522 1523 1524 1524 1525 1525 1525 1524 1523 1523 1522 1521
1455 1455 1455 1455 1455 1456 1457 1458 1458 1459 1460 1462 1464 1467 1470 1473 1476 1480 1484 1487 1490 1493 1496 1500 1503 1506 1508 1511 1513 1515 1516 1517 1518 1519 1519 1520 1520 1521 1520 1519 1518 1517 1516